Starlink 6186

operational
NORAD ID: 56908 Int'l Des: 2023-083 Owner: SPXS Country: US Constellation: starlink
LEOCIRCULAR

About Starlink 6186

Description loading...

Live Position

Loading 3D Globe...

Upcoming Passes

Altitude History

Altitude vs Time

uPlot chart will show altitude changes over time

Two-Line Element Set

1 56908U 23083AJ 25353.49212276 .00000725 00000-0 68762-4 0 9992
2 56908 43.0019 144.8017 0001492 227.3583 132.7134 15.02533455139757
Epoch: Dec 19, 2025 • Age: 12 hours

Current Status

Altitude 570.6 km
Velocity 7.58 km/s
Sub-Earth Point -39.89°S, 13.91°W
Launch Date Jun 12, 2023
Age 2.5 years
Type internet

Technical Details

Classification Payload
Mass 305.00 kg
Dry Mass 290.00 kg
Total Mass 305.00 kg
Length 0.20 m
Diameter 2.80 m
Span 9.00 m
Shape Box + pan
Manufacturer SPXS
Bus Type Starlink
Phase Status In Orbit
Owner/State SPXS/US

Large Constellations

Loading constellations...